Location: Chmeln�
(49.6483°N, 14.9871°E)
Time: 06:12:11
(UTC+00:00)

Lacrosse 5 rocket - Pass Details

Date: 22 January 2021
Orbit: 465 x 630 km, 57.0° (Epoch: 06 March)

Event Time Altitude Azimuth Distance (km) Brightness Sun altitude
Exits shadow 05:06:06 31° 266° (W) 920 1.9 -15.7°
Maximum altitude 05:07:17 39° 225° (SW) 761 1.8 -15.5°
Drops below altitude 10° 05:10:47 10° 155° (SSE) 1,668 4.3 -15.0°
Sets 05:12:58 0° 147° (SSE) 2,524 5.4 -14.6°
